sat.trackr.live / text

‹ back to catalog

STARLINK-30769

NORAD 58138 · 2023-162W

PAYLOAD ACTIVE UNKNOWN

§ Identity

Operator
Country
US
Launch date
2023-10-22
Launch site
AFETR
Launch vehicle
Mass (kg)
RCS (m²)

Purposes: comms

External: N2YO · Heavens-Above · Gunter

§ Orbital elements

Epoch: 2026-09-20T22:53:10.412736Z

Period
94.27 min
Inclination
43.0037°
Eccentricity
0.0001541
Mean motion
15.27578086 rev/d
Perigee alt
482.0 km
Apogee alt
484.1 km
Semi-major
6,861.2 km
B*
1.5893e-5
RAAN
109.4406°
Arg perigee
257.7169°
Mean anomaly
102.3510°
Rev number
16,217

§ Raw data

STARLINK-307691 58138U 23162W   26263.95359274  .00000175  00000+0  15893-4 0  99942 58138  43.0037 109.4406 0001541 257.7169 102.3510 15.27578086162174

JSON: /api/v1/satellites/58138 · /tle

For live sub-satellite position, see the globe view (requires WebGL).

§ Visibility from observer

Set your observer location to see the next 7 days of passes ≥ 10°. The values pass through the URL so the page stays shareable.

No JS? Fill the form by hand. The geolocation button needs JavaScript.